Weather History for Watsonville, CA

Change the Weather History Date:

Saturday, August 16, 2014

  Actual Average Record
Temperature  
Mean Temperature 67 °F 64 °F  
Max Temperature 75 °F 74 °F 84 °F (2007)
Min Temperature 59 °F 53 °F 47 °F (2000)
Degree Days  
Heating Degree Days 0    
Month to date heating degree days 0  
Since 1 June heating degree days 108  
Since 1 July heating degree days 15  
Cooling Degree Days 2    
Month to date cooling degree days 39  
Year to date cooling degree days 162  
Since 1 June cooling degree days 118  
Growing Degree Days 16 (Base 50)    
Moisture  
Dew Point 56 °F    
Average Humidity 72    
Maximum Humidity 90    
Minimum Humidity 53    
Precipitation  
Precipitation 0.00 in - 0.01 in (2013)
Month to date precipitation T  
Year to date precipitation 8.24  
Since 1 July precipitation 0.06  
Sea Level Pressure  
Sea Level Pressure 30.03 in    
Wind  
Wind Speed 5 mph (WSW)    
Max Wind Speed 13 mph    
Max Gust Speed 18 mph    
Visibility 9 miles    
Events      
T = Trace of Precipitation, MM = Missing Value Source: NWS Daily Summary

Daily Weather History Graph

Daily Weather History Graph

Search for Another Location

Airport:

Trip Planner

Search our weather history database for the weather conditions in past years. The results will help you decide how hot, cold, wet, or windy it might be!

Date:

Astronomy

Aug. 16, 2014 Rise Set
Actual Time 6:24 AM PDT 7:57 PM PDT
Civil Twilight 5:57 AM PDT 8:24 PM PDT
Nautical Twilight 5:24 AM PDT 8:57 PM PDT
Astronomical Twilight 4:49 AM PDT 9:32 PM PDT
Moon 11:55 PM PDT (8/16) 1:05 PM PDT (8/16)
Length of Visible Light 14h 27m
Length of Day
13h 32m
Waning Gibbous, 58% of the Moon is Illuminated
Aug 16
Waning Gibbous
Aug 17
Last Quarter
Aug 25
New
Sep 2
First Quarter
Sep 8
Full

Hourly Weather History & Observations

Time (PDT) Temp. Dew Point Humidity Pressure Visibility Wind Dir Wind Speed Gust Speed Precip Events Conditions
12:53 AM 62.1 °F 57.0 °F 84% 30.01 in 10.0 mi Calm Calm - N/A   Overcast
1:53 AM 62.1 °F 57.0 °F 84% 30.01 in 10.0 mi Calm Calm - N/A   Overcast
2:23 AM 61.0 °F 57.0 °F 87% 30.01 in 10.0 mi WNW 3.5 mph - N/A   Overcast
2:53 AM 61.0 °F 55.9 °F 83% 30.01 in 10.0 mi WSW 3.5 mph - N/A   Overcast
3:45 AM 60.1 °F 57.0 °F 90% 30.01 in 9.0 mi Calm Calm - N/A   Overcast
3:53 AM 60.1 °F 57.0 °F 90% 30.01 in 9.0 mi SSW 3.5 mph - N/A   Overcast
4:35 AM 61.0 °F 55.0 °F 81% 30.01 in 10.0 mi Calm Calm - N/A   Overcast
4:53 AM 61.0 °F 55.9 °F 83% 30.01 in 10.0 mi Calm Calm - N/A   Overcast
5:12 AM 61.0 °F 55.9 °F 83% 30.02 in 10.0 mi Calm Calm - N/A   Overcast
5:53 AM 60.1 °F 55.9 °F 86% 30.03 in 10.0 mi Calm Calm - N/A   Overcast
6:18 AM 60.1 °F 55.9 °F 86% 30.03 in 8.0 mi NW 3.5 mph - N/A   Overcast
6:53 AM 59.0 °F 55.0 °F 87% 30.04 in 6.0 mi NW 3.5 mph - N/A   Overcast
7:10 AM 59.0 °F 55.0 °F 87% 30.05 in 5.0 mi NNW 4.6 mph - N/A   Overcast
7:27 AM 60.1 °F 55.0 °F 83% 30.05 in 5.0 mi North 4.6 mph - N/A   Haze
7:53 AM 60.1 °F 55.9 °F 86% 30.06 in 9.0 mi NNW 3.5 mph - N/A   Overcast
8:06 AM 60.1 °F 55.9 °F 86% 30.06 in 8.0 mi Calm Calm - N/A   Overcast
8:36 AM 61.0 °F 55.9 °F 83% 30.06 in 10.0 mi Calm Calm - N/A   Overcast
8:53 AM 61.0 °F 55.9 °F 83% 30.06 in 10.0 mi ENE 3.5 mph - N/A   Overcast
9:53 AM 66.0 °F 55.9 °F 70% 30.06 in 10.0 mi Variable 3.5 mph - N/A   Overcast
10:05 AM 64.9 °F 55.0 °F 70% 30.06 in 10.0 mi Calm Calm - N/A   Overcast
10:23 AM 68.0 °F 55.0 °F 63% 30.06 in 10.0 mi Variable 3.5 mph - N/A   Scattered Clouds
10:53 AM 71.1 °F 55.9 °F 59% 30.06 in 10.0 mi South 6.9 mph - N/A   Clear
11:53 AM 73.9 °F 57.0 °F 55% 30.05 in 10.0 mi SSW 8.1 mph - N/A   Clear
12:53 PM 73.9 °F 57.0 °F 55% 30.04 in 10.0 mi SSW 11.5 mph - N/A   Clear
1:53 PM 73.0 °F 55.9 °F 55% 30.04 in 10.0 mi SW 10.4 mph - N/A   Clear
2:53 PM 72.0 °F 55.9 °F 57% 30.03 in 10.0 mi SW 10.4 mph - N/A   Clear
3:53 PM 71.1 °F 55.9 °F 59% 30.02 in 10.0 mi WSW 9.2 mph - N/A   Clear
4:53 PM 70.0 °F 55.9 °F 61% 30.01 in 10.0 mi SW 8.1 mph - N/A   Clear
5:53 PM 68.0 °F 57.0 °F 68% 30.01 in 10.0 mi SW 9.2 mph - N/A   Clear
6:53 PM 64.0 °F 55.9 °F 75% 30.01 in 10.0 mi SW 9.2 mph - N/A   Clear
7:53 PM 61.0 °F 55.0 °F 81% 30.01 in 10.0 mi SW 4.6 mph - N/A   Clear
8:04 PM 61.0 °F 55.0 °F 81% 30.01 in 10.0 mi WSW 4.6 mph - N/A   Partly Cloudy
8:44 PM 60.1 °F 55.0 °F 83% 30.02 in 10.0 mi Calm Calm - N/A   Mostly Cloudy
8:53 PM 61.0 °F 55.9 °F 83% 30.02 in 10.0 mi Calm Calm - N/A   Overcast
9:53 PM 61.0 °F 55.9 °F 83% 30.03 in 10.0 mi Calm Calm - N/A   Overcast
10:53 PM 61.0 °F 55.9 °F 83% 30.02 in 10.0 mi WSW 3.5 mph - N/A   Overcast